Time,TemperatureF,DewpointF,PressureIn,WindDirection,WindDirectionDegrees,WindSpeedMPH,WindSpeedGustMPH,Humidity,HourlyPrecipIn,Conditions,Clouds,dailyrainin,SoftwareType,DateUTC
2013-03-21 00:01:00,26.6,4.2,27.05,North,0,0.0,0.0,38,0.00,NA,NA,-99.99,wxupload 3.5,2013-03-21 04:01:00,
2013-03-21 00:03:00,26.6,4.2,27.05,North,0,0.0,0.0,38,0.00,NA,NA,-99.99,wxupload 3.5,2013-03-21 04:03:00,
2013-03-21 00:04:00,26.4,4.1,27.05,North,0,0.0,0.0,38,0.00,NA,NA,-99.99,wxupload 3.5,2013-03-21 04:04:00,
2013-03-21 00:08:00,26.2,3.9,27.05,North,0,0.0,0.0,38,0.00,NA,NA,-99.99,wxupload 3.5,2013-03-21 04:08:00,
2013-03-21 00:14:00,25.9,3.6,27.05,North,0,0.0,0.0,38,0.00,NA,NA,-99.99,wxupload 3.5,2013-03-21 04:14:00,
2013-03-21 00:20:00,25.7,2.8,27.05,North,0,0.0,0.0,37,0.00,NA,NA,-99.99,wxupload 3.5,2013-03-21 04:20:00,
2013-03-21 00:27:00,25.5,2.0,27.05,North,0,0.0,0.0,36,0.00,NA,NA,-99.99,wxupload 3.5,2013-03-21 04:27:00,
2013-03-21 00:33:00,25.3,1.3,27.05,North,0,0.0,0.0,35,0.00,NA,NA,-99.99,wxupload 3.5,2013-03-21 04:33:00,
2013-03-21 00:39:00,25.3,1.3,27.05,North,0,0.0,0.0,35,0.00,NA,NA,-99.99,wxupload 3.5,2013-03-21 04:39:00,
2013-03-21 00:44:00,25.2,-0.2,27.05,North,0,0.0,0.0,33,0.00,NA,NA,-99.99,wxupload 3.5,2013-03-21 04:44:00,
2013-03-21 00:50:00,25.2,-0.2,27.05,North,0,0.0,0.0,33,0.00,NA,NA,-99.99,wxupload 3.5,2013-03-21 04:50:00,
2013-03-21 00:56:00,25.0,-1.0,27.05,North,0,0.0,0.0,32,0.00,NA,NA,-99.99,wxupload 3.5,2013-03-21 04:56:00,
2013-03-21 01:03:00,25.0,-1.0,27.05,North,0,0.0,0.0,32,0.00,NA,NA,-99.99,wxupload 3.5,2013-03-21 05:03:00,
2013-03-21 01:09:00,24.8,-3.3,27.05,North,0,0.0,0.0,29,0.00,NA,NA,-99.99,wxupload 3.5,2013-03-21 05:09:00,
2013-03-21 01:15:00,24.6,-5.0,27.05,North,0,0.0,0.0,27,0.00,NA,NA,-99.99,wxupload 3.5,2013-03-21 05:15:00,
2013-03-21 01:20:00,24.4,-5.1,27.05,North,0,0.0,0.0,27,0.00,NA,NA,-99.99,wxupload 3.5,2013-03-21 05:20:00,
2013-03-21 01:26:00,24.4,-9.4,27.05,North,0,0.0,0.0,22,0.00,NA,NA,-99.99,wxupload 3.5,2013-03-21 05:26:00,
2013-03-21 01:32:00,24.3,-9.6,27.05,North,0,0.0,0.0,22,0.00,NA,NA,-99.99,wxupload 3.5,2013-03-21 05:32:00,
2013-03-21 01:38:00,24.3,-7.8,27.05,North,0,0.0,0.0,24,0.00,NA,NA,-99.99,wxupload 3.5,2013-03-21 05:38:00,
2013-03-21 01:45:00,24.3,-7.8,27.05,North,0,0.0,0.0,24,0.00,NA,NA,-99.99,wxupload 3.5,2013-03-21 05:45:00,
2013-03-21 01:51:00,24.3,-7.8,27.05,North,0,0.0,0.0,24,0.00,NA,NA,-99.99,wxupload 3.5,2013-03-21 05:51:00,
2013-03-21 01:57:00,24.1,-7.9,27.05,North,0,0.0,0.0,24,0.00,NA,NA,-99.99,wxupload 3.5,2013-03-21 05:57:00,
2013-03-21 02:02:00,24.3,-5.3,27.05,North,0,0.0,0.0,27,0.00,NA,NA,-99.99,wxupload 3.5,2013-03-21 06:02:00,
2013-03-21 02:08:00,24.1,-5.4,27.05,North,0,0.0,0.0,27,0.00,NA,NA,-99.99,wxupload 3.5,2013-03-21 06:08:00,
2013-03-21 02:14:00,23.9,-8.1,27.05,North,0,0.0,0.0,24,0.00,NA,NA,-99.99,wxupload 3.5,2013-03-21 06:14:00,
2013-03-21 02:21:00,23.7,-10.0,27.05,North,0,0.0,0.0,22,0.00,NA,NA,-99.99,wxupload 3.5,2013-03-21 06:21:00,
2013-03-21 02:27:00,23.5,-10.2,27.05,North,0,0.0,0.0,22,0.00,NA,NA,-99.99,wxupload 3.5,2013-03-21 06:27:00,
2013-03-21 02:33:00,23.4,-10.3,27.05,North,0,0.0,0.0,22,0.00,NA,NA,-99.99,wxupload 3.5,2013-03-21 06:33:00,
2013-03-21 02:38:00,23.4,-10.3,27.05,North,0,0.0,0.0,22,0.00,NA,NA,-99.99,wxupload 3.5,2013-03-21 06:38:00,
2013-03-21 02:44:00,23.2,-10.5,27.05,North,0,0.0,0.0,22,0.00,NA,NA,-99.99,wxupload 3.5,2013-03-21 06:44:00,
2013-03-21 02:50:00,23.0,-12.6,27.05,North,0,0.0,0.0,20,0.00,NA,NA,-99.99,wxupload 3.5,2013-03-21 06:50:00,
2013-03-21 02:56:00,22.8,-12.8,27.05,North,0,0.0,0.0,20,0.00,NA,NA,-99.99,wxupload 3.5,2013-03-21 06:56:00,
2013-03-21 03:03:00,22.6,-12.9,27.05,North,0,0.0,0.0,20,0.00,NA,NA,-99.99,wxupload 3.5,2013-03-21 07:03:00,
2013-03-21 03:09:00,22.6,-12.9,27.05,North,0,0.0,0.0,20,0.00,NA,NA,-99.99,wxupload 3.5,2013-03-21 07:09:00,
2013-03-21 03:14:00,22.6,-12.9,27.05,North,0,0.0,0.0,20,0.00,NA,NA,-99.99,wxupload 3.5,2013-03-21 07:14:00,
2013-03-21 03:20:00,22.6,-12.9,27.05,North,0,0.0,0.0,20,0.00,NA,NA,-99.99,wxupload 3.5,2013-03-21 07:20:00,
2013-03-21 03:26:00,22.5,-13.1,27.05,North,0,0.0,0.0,20,0.00,NA,NA,-99.99,wxupload 3.5,2013-03-21 07:26:00,
2013-03-21 03:32:00,22.1,-13.4,27.05,North,0,0.0,0.0,20,0.00,NA,NA,-99.99,wxupload 3.5,2013-03-21 07:32:00,
2013-03-21 03:39:00,22.1,-13.4,27.05,North,0,0.0,0.0,20,0.00,NA,NA,-99.99,wxupload 3.5,2013-03-21 07:39:00,
2013-03-21 03:45:00,21.9,-13.5,27.05,North,0,0.0,0.0,20,0.00,NA,NA,-99.99,wxupload 3.5,2013-03-21 07:45:00,
2013-03-21 03:51:00,21.9,-13.5,27.05,North,0,0.0,0.0,20,0.00,NA,NA,-99.99,wxupload 3.5,2013-03-21 07:51:00,
2013-03-21 03:56:00,21.7,-13.7,27.05,North,0,0.0,0.0,20,0.00,NA,NA,-99.99,wxupload 3.5,2013-03-21 07:56:00,
2013-03-21 04:02:00,21.7,-13.7,27.05,North,0,0.0,0.0,20,0.00,NA,NA,-99.99,wxupload 3.5,2013-03-21 08:02:00,
2013-03-21 04:08:00,21.6,-13.9,27.05,North,0,0.0,0.0,20,0.00,NA,NA,-99.99,wxupload 3.5,2013-03-21 08:08:00,
2013-03-21 04:15:00,21.4,-14.0,27.05,North,0,0.0,0.0,20,0.00,NA,NA,-99.99,wxupload 3.5,2013-03-21 08:15:00,
2013-03-21 04:21:00,21.4,-14.0,27.05,North,0,0.0,0.0,20,0.00,NA,NA,-99.99,wxupload 3.5,2013-03-21 08:21:00,
2013-03-21 04:27:00,21.4,-14.0,27.05,North,0,0.0,0.0,20,0.00,NA,NA,-99.99,wxupload 3.5,2013-03-21 08:27:00,
2013-03-21 04:32:00,21.4,-14.0,27.05,North,0,0.0,0.0,20,0.00,NA,NA,-99.99,wxupload 3.5,2013-03-21 08:32:00,
2013-03-21 04:38:00,21.2,-14.2,27.05,North,0,0.0,0.0,20,0.00,NA,NA,-99.99,wxupload 3.5,2013-03-21 08:38:00,
2013-03-21 04:44:00,21.2,-14.2,27.05,North,0,0.0,0.0,20,0.00,NA,NA,-99.99,wxupload 3.5,2013-03-21 08:44:00,
2013-03-21 04:50:00,21.2,-12.2,27.05,North,0,0.0,0.0,22,0.00,NA,NA,-99.99,wxupload 3.5,2013-03-21 08:50:00,
2013-03-21 04:57:00,20.8,-14.5,27.05,North,0,0.0,0.0,20,0.00,NA,NA,-99.99,wxupload 3.5,2013-03-21 08:57:00,
2013-03-21 05:03:00,20.5,-12.8,27.05,North,0,0.0,0.0,22,0.00,NA,NA,-99.99,wxupload 3.5,2013-03-21 09:03:00,
2013-03-21 05:08:00,20.3,-13.0,27.05,North,0,0.0,0.0,22,0.00,NA,NA,-99.99,wxupload 3.5,2013-03-21 09:08:00,
2013-03-21 05:14:00,20.1,-13.1,27.05,North,0,0.0,0.0,22,0.00,NA,NA,-99.99,wxupload 3.5,2013-03-21 09:14:00,
2013-03-21 05:20:00,19.8,-13.5,27.05,North,0,0.0,0.0,22,0.00,NA,NA,-99.99,wxupload 3.5,2013-03-21 09:20:00,
2013-03-21 05:26:00,19.6,-15.6,27.05,North,0,0.0,0.0,20,0.00,NA,NA,-99.99,wxupload 3.5,2013-03-21 09:26:00,
2013-03-21 05:33:00,19.6,-15.6,27.05,North,0,0.0,0.0,20,0.00,NA,NA,-99.99,wxupload 3.5,2013-03-21 09:33:00,
2013-03-21 05:39:00,19.8,-15.4,27.05,North,0,0.0,0.0,20,0.00,NA,NA,-99.99,wxupload 3.5,2013-03-21 09:39:00,
2013-03-21 05:45:00,19.9,-15.2,27.05,North,0,0.0,0.0,20,0.00,NA,NA,-99.99,wxupload 3.5,2013-03-21 09:45:00,
2013-03-21 05:50:00,19.6,-15.6,27.05,North,0,0.0,0.0,20,0.00,NA,NA,-99.99,wxupload 3.5,2013-03-21 09:50:00,
2013-03-21 05:56:00,19.8,-15.4,27.05,North,0,0.0,0.0,20,0.00,NA,NA,-99.99,wxupload 3.5,2013-03-21 09:56:00,
2013-03-21 06:02:00,19.9,-15.2,27.05,North,0,0.0,0.0,20,0.00,NA,NA,-99.99,wxupload 3.5,2013-03-21 10:02:00,
2013-03-21 06:08:00,20.1,-15.1,27.05,North,0,0.0,0.0,20,0.00,NA,NA,-99.99,wxupload 3.5,2013-03-21 10:08:00,
2013-03-21 06:15:00,19.9,-15.2,27.05,North,0,0.0,0.0,20,0.00,NA,NA,-99.99,wxupload 3.5,2013-03-21 10:15:00,
2013-03-21 06:21:00,19.8,-15.4,27.05,North,0,0.0,0.0,20,0.00,NA,NA,-99.99,wxupload 3.5,2013-03-21 10:21:00,
2013-03-21 06:26:00,19.8,-15.4,27.05,North,0,0.0,0.0,20,0.00,NA,NA,-99.99,wxupload 3.5,2013-03-21 10:26:00,
2013-03-21 06:34:00,19.9,-13.3,27.05,North,0,0.0,0.0,22,0.00,NA,NA,-99.99,wxupload 3.5,2013-03-21 10:34:00,
2013-03-21 06:42:00,19.6,-13.6,27.05,North,0,0.0,0.0,22,0.00,NA,NA,-99.99,wxupload 3.5,2013-03-21 10:42:00,
2013-03-21 06:48:00,19.4,-12.9,27.05,North,0,0.0,0.0,23,0.00,NA,NA,-99.99,wxupload 3.5,2013-03-21 10:48:00,
2013-03-21 06:54:00,19.2,-13.0,27.05,North,0,0.0,0.0,23,0.00,NA,NA,-99.99,wxupload 3.5,2013-03-21 10:54:00,
2013-03-21 07:00:00,19.4,-12.9,27.05,North,0,0.0,0.0,23,0.00,NA,NA,-99.99,wxupload 3.5,2013-03-21 11:00:00,
2013-03-21 07:07:00,19.4,-12.9,27.05,North,0,0.0,0.0,23,0.00,NA,NA,-99.99,wxupload 3.5,2013-03-21 11:07:00,
2013-03-21 07:13:00,19.6,-13.6,27.05,North,0,0.0,0.0,22,0.00,NA,NA,-99.99,wxupload 3.5,2013-03-21 11:13:00,
2013-03-21 07:19:00,19.8,-10.8,27.05,North,0,0.0,0.0,25,0.00,NA,NA,-99.99,wxupload 3.5,2013-03-21 11:19:00,
2013-03-21 07:24:00,19.8,-13.5,27.05,North,0,0.0,0.0,22,0.00,NA,NA,-99.99,wxupload 3.5,2013-03-21 11:24:00,
2013-03-21 07:30:00,19.8,-10.8,27.05,North,0,0.0,0.0,25,0.00,NA,NA,-99.99,wxupload 3.5,2013-03-21 11:30:00,
2013-03-21 07:36:00,19.9,-10.7,27.05,North,0,0.0,0.0,25,0.00,NA,NA,-99.99,wxupload 3.5,2013-03-21 11:36:00,
2013-03-21 07:43:00,19.9,-9.1,27.05,North,0,0.0,0.0,27,0.00,NA,NA,-99.99,wxupload 3.5,2013-03-21 11:43:00,
2013-03-21 07:49:00,20.1,-8.9,27.05,North,0,0.0,0.0,27,0.00,NA,NA,-99.99,wxupload 3.5,2013-03-21 11:49:00,
2013-03-21 07:55:00,20.1,-8.9,27.05,North,0,0.0,0.0,27,0.00,NA,NA,-99.99,wxupload 3.5,2013-03-21 11:55:00,
2013-03-21 08:00:00,20.3,-6.6,27.05,North,0,0.0,0.0,30,0.00,NA,NA,-99.99,wxupload 3.5,2013-03-21 12:00:00,
2013-03-21 08:06:00,20.1,-6.7,27.05,North,0,0.0,0.0,30,0.00,NA,NA,-99.99,wxupload 3.5,2013-03-21 12:06:00,
2013-03-21 08:12:00,19.9,-10.7,27.05,North,0,0.0,0.0,25,0.00,NA,NA,-99.99,wxupload 3.5,2013-03-21 12:12:00,
2013-03-21 08:18:00,19.8,-10.8,27.05,North,0,0.0,0.0,25,0.00,NA,NA,-99.99,wxupload 3.5,2013-03-21 12:18:00,
2013-03-21 08:25:00,19.6,-13.6,27.05,North,0,0.0,0.0,22,0.00,NA,NA,-99.99,wxupload 3.5,2013-03-21 12:25:00,
2013-03-21 08:31:00,19.8,-13.5,27.05,North,0,0.0,0.0,22,0.00,NA,NA,-99.99,wxupload 3.5,2013-03-21 12:31:00,
2013-03-21 08:36:00,19.8,-15.4,27.05,North,0,0.0,0.0,20,0.00,NA,NA,-99.99,wxupload 3.5,2013-03-21 12:36:00,
2013-03-21 08:42:00,20.1,-15.1,27.05,North,0,0.0,0.0,20,0.00,NA,NA,-99.99,wxupload 3.5,2013-03-21 12:42:00,
2013-03-21 08:48:00,20.3,-14.9,27.05,North,0,0.0,0.0,20,0.00,NA,NA,-99.99,wxupload 3.5,2013-03-21 12:48:00,
2013-03-21 08:54:00,20.5,-14.8,27.05,North,0,0.0,0.0,20,0.00,NA,NA,-99.99,wxupload 3.5,2013-03-21 12:54:00,
2013-03-21 09:00:00,20.7,-14.6,27.05,North,0,0.0,0.0,20,0.00,NA,NA,-99.99,wxupload 3.5,2013-03-21 13:00:00,
2013-03-21 09:07:00,21.2,-14.2,27.05,North,0,0.0,0.0,20,0.00,NA,NA,-99.99,wxupload 3.5,2013-03-21 13:07:00,
2013-03-21 09:13:00,21.2,-14.2,27.05,North,0,0.0,0.0,20,0.00,NA,NA,-99.99,wxupload 3.5,2013-03-21 13:13:00,
2013-03-21 09:18:00,21.4,-14.0,27.05,North,0,0.0,0.0,20,0.00,NA,NA,-99.99,wxupload 3.5,2013-03-21 13:18:00,
2013-03-21 09:24:00,21.6,-13.9,27.05,North,0,0.0,0.0,20,0.00,NA,NA,-99.99,wxupload 3.5,2013-03-21 13:24:00,
2013-03-21 09:30:00,21.7,-13.7,27.05,North,0,0.0,0.0,20,0.00,NA,NA,-99.99,wxupload 3.5,2013-03-21 13:30:00,
2013-03-21 09:36:00,21.6,-13.9,27.05,North,0,0.0,0.0,20,0.00,NA,NA,-99.99,wxupload 3.5,2013-03-21 13:36:00,
2013-03-21 09:43:00,21.4,-14.0,27.05,North,0,0.0,0.0,20,0.00,NA,NA,-99.99,wxupload 3.5,2013-03-21 13:43:00,
2013-03-21 09:49:00,21.7,-13.7,27.05,North,0,0.0,0.0,20,0.00,NA,NA,-99.99,wxupload 3.5,2013-03-21 13:49:00,
2013-03-21 09:54:00,21.9,-13.5,27.05,North,0,0.0,0.0,20,0.00,NA,NA,-99.99,wxupload 3.5,2013-03-21 13:54:00,
2013-03-21 10:00:00,22.3,-13.2,27.05,North,0,0.0,0.0,20,0.00,NA,NA,-99.99,wxupload 3.5,2013-03-21 14:00:00,
2013-03-21 10:06:00,22.3,-13.2,27.05,North,0,0.0,0.0,20,0.00,NA,NA,-99.99,wxupload 3.5,2013-03-21 14:06:00,
2013-03-21 10:12:00,22.1,-13.4,27.05,North,0,0.0,0.0,20,0.00,NA,NA,-99.99,wxupload 3.5,2013-03-21 14:12:00,
2013-03-21 10:18:00,22.5,-13.1,27.05,North,0,0.0,0.0,20,0.00,NA,NA,-99.99,wxupload 3.5,2013-03-21 14:18:00,
2013-03-21 10:25:00,22.8,-12.8,27.05,North,0,0.0,0.0,20,0.00,NA,NA,-99.99,wxupload 3.5,2013-03-21 14:25:00,
2013-03-21 10:31:00,23.4,-13.4,27.05,North,0,0.0,0.0,19,0.00,NA,NA,-99.99,wxupload 3.5,2013-03-21 14:31:00,
2013-03-21 10:36:00,23.7,-13.1,27.05,North,0,0.0,0.0,19,0.00,NA,NA,-99.99,wxupload 3.5,2013-03-21 14:36:00,
2013-03-21 10:42:00,25.0,-12.0,27.05,North,0,0.0,0.0,19,0.00,NA,NA,-99.99,wxupload 3.5,2013-03-21 14:42:00,
2013-03-21 10:48:00,25.3,-11.7,27.05,North,0,0.0,0.0,19,0.00,NA,NA,-99.99,wxupload 3.5,2013-03-21 14:48:00,
2013-03-21 10:54:00,25.7,-11.4,27.05,North,0,0.0,0.0,19,0.00,NA,NA,-99.99,wxupload 3.5,2013-03-21 14:54:00,
2013-03-21 11:00:00,26.1,-11.1,27.05,North,0,0.0,0.0,19,0.00,NA,NA,-99.99,wxupload 3.5,2013-03-21 15:00:00,
2013-03-21 11:07:00,26.8,-11.6,27.05,North,0,0.0,0.0,18,0.00,NA,NA,-99.99,wxupload 3.5,2013-03-21 15:07:00,
2013-03-21 11:13:00,27.3,-11.1,27.05,North,0,0.0,0.0,18,0.00,NA,NA,-99.99,wxupload 3.5,2013-03-21 15:13:00,
2013-03-21 11:18:00,27.9,-10.6,27.05,North,0,0.0,0.0,18,0.00,NA,NA,-99.99,wxupload 3.5,2013-03-21 15:18:00,
2013-03-21 11:24:00,28.4,-10.2,27.05,North,0,0.0,0.0,18,0.00,NA,NA,-99.99,wxupload 3.5,2013-03-21 15:24:00,
2013-03-21 11:30:00,28.6,-10.0,27.05,North,0,0.0,0.0,18,0.00,NA,NA,-99.99,wxupload 3.5,2013-03-21 15:30:00,
2013-03-21 11:36:00,28.6,-10.0,27.05,North,0,0.0,0.0,18,0.00,NA,NA,-99.99,wxupload 3.5,2013-03-21 15:36:00,
2013-03-21 11:42:00,29.3,-9.4,27.05,North,0,0.0,0.0,18,0.00,NA,NA,-99.99,wxupload 3.5,2013-03-21 15:42:00,
2013-03-21 11:49:00,28.9,-9.7,27.05,North,0,0.0,0.0,18,0.00,NA,NA,-99.99,wxupload 3.5,2013-03-21 15:49:00,
2013-03-21 11:55:00,28.6,-10.0,27.05,North,0,0.0,0.0,18,0.00,NA,NA,-99.99,wxupload 3.5,2013-03-21 15:55:00,
2013-03-21 12:00:00,27.1,-11.3,27.05,North,0,0.0,0.0,18,0.00,NA,NA,-99.99,wxupload 3.5,2013-03-21 16:00:00,
2013-03-21 12:06:00,26.8,-11.6,27.05,North,0,0.0,0.0,18,0.00,NA,NA,-99.99,wxupload 3.5,2013-03-21 16:06:00,
2013-03-21 12:12:00,26.2,-10.9,27.05,North,0,0.0,0.0,19,0.00,NA,NA,-99.99,wxupload 3.5,2013-03-21 16:12:00,
2013-03-21 12:18:00,26.1,-11.1,27.05,North,0,0.0,0.0,19,0.00,NA,NA,-99.99,wxupload 3.5,2013-03-21 16:18:00,
2013-03-21 12:24:00,26.2,-10.9,27.05,North,0,0.0,0.0,19,0.00,NA,NA,-99.99,wxupload 3.5,2013-03-21 16:24:00,
2013-03-21 12:31:00,26.1,-11.1,27.05,North,0,0.0,0.0,19,0.00,NA,NA,-99.99,wxupload 3.5,2013-03-21 16:31:00,
2013-03-21 12:37:00,26.1,-11.1,27.05,North,0,0.0,0.0,19,0.00,NA,NA,-99.99,wxupload 3.5,2013-03-21 16:37:00,
2013-03-21 12:43:00,25.5,-11.5,27.05,North,0,0.0,0.0,19,0.00,NA,NA,-99.99,wxupload 3.5,2013-03-21 16:43:00,
2013-03-21 12:48:00,25.5,-11.5,27.05,North,0,0.0,0.0,19,0.00,NA,NA,-99.99,wxupload 3.5,2013-03-21 16:48:00,
2013-03-21 12:54:00,25.7,-11.4,27.05,North,0,0.0,0.0,19,0.00,NA,NA,-99.99,wxupload 3.5,2013-03-21 16:54:00,
2013-03-21 13:00:00,26.1,-11.1,27.05,North,0,0.0,0.0,19,0.00,NA,NA,-99.99,wxupload 3.5,2013-03-21 17:00:00,
2013-03-21 13:06:00,26.1,-11.1,27.05,North,0,0.0,0.0,19,0.00,NA,NA,-99.99,wxupload 3.5,2013-03-21 17:06:00,
2013-03-21 13:13:00,26.2,-10.9,27.05,North,0,0.0,0.0,19,0.00,NA,NA,-99.99,wxupload 3.5,2013-03-21 17:13:00,
2013-03-21 13:19:00,25.7,-11.4,27.05,North,0,0.0,0.0,19,0.00,NA,NA,-99.99,wxupload 3.5,2013-03-21 17:19:00,
2013-03-21 13:25:00,25.5,-11.5,27.05,North,0,0.0,0.0,19,0.00,NA,NA,-99.99,wxupload 3.5,2013-03-21 17:25:00,
2013-03-21 13:30:00,25.9,-11.2,27.05,North,0,0.0,0.0,19,0.00,NA,NA,-99.99,wxupload 3.5,2013-03-21 17:30:00,
2013-03-21 13:36:00,26.2,-10.9,27.05,North,0,0.0,0.0,19,0.00,NA,NA,-99.99,wxupload 3.5,2013-03-21 17:36:00,
2013-03-21 13:42:00,26.1,-11.1,27.05,North,0,0.0,0.0,19,0.00,NA,NA,-99.99,wxupload 3.5,2013-03-21 17:42:00,
2013-03-21 13:48:00,26.1,-11.1,27.05,North,0,0.0,0.0,19,0.00,NA,NA,-99.99,wxupload 3.5,2013-03-21 17:48:00,
2013-03-21 13:55:00,26.2,-10.9,27.05,North,0,0.0,0.0,19,0.00,NA,NA,-99.99,wxupload 3.5,2013-03-21 17:55:00,
2013-03-21 14:01:00,26.2,-10.9,27.05,North,0,0.0,0.0,19,0.00,NA,NA,-99.99,wxupload 3.5,2013-03-21 18:01:00,
2013-03-21 14:07:00,26.1,-11.1,27.05,North,0,0.0,0.0,19,0.00,NA,NA,-99.99,wxupload 3.5,2013-03-21 18:07:00,
2013-03-21 14:12:00,25.5,-11.5,27.05,North,0,0.0,0.0,19,0.00,NA,NA,-99.99,wxupload 3.5,2013-03-21 18:12:00,
2013-03-21 14:18:00,25.3,-11.7,27.05,North,0,0.0,0.0,19,0.00,NA,NA,-99.99,wxupload 3.5,2013-03-21 18:18:00,
2013-03-21 14:24:00,25.3,-11.7,27.05,North,0,0.0,0.0,19,0.00,NA,NA,-99.99,wxupload 3.5,2013-03-21 18:24:00,
2013-03-21 14:30:00,25.5,-11.5,27.05,North,0,0.0,0.0,19,0.00,NA,NA,-99.99,wxupload 3.5,2013-03-21 18:30:00,
2013-03-21 14:37:00,25.3,-11.7,27.05,North,0,0.0,0.0,19,0.00,NA,NA,-99.99,wxupload 3.5,2013-03-21 18:37:00,
2013-03-21 14:43:00,25.3,-11.7,27.05,North,0,0.0,0.0,19,0.00,NA,NA,-99.99,wxupload 3.5,2013-03-21 18:43:00,
2013-03-21 14:48:00,25.5,-11.5,27.05,North,0,0.0,0.0,19,0.00,NA,NA,-99.99,wxupload 3.5,2013-03-21 18:48:00,
2013-03-21 14:54:00,25.3,-11.7,27.05,North,0,0.0,0.0,19,0.00,NA,NA,-99.99,wxupload 3.5,2013-03-21 18:54:00,
2013-03-21 15:00:00,25.0,-12.0,27.05,North,0,0.0,0.0,19,0.00,NA,NA,-99.99,wxupload 3.5,2013-03-21 19:00:00,
2013-03-21 15:06:00,25.2,-11.8,27.05,North,0,0.0,0.0,19,0.00,NA,NA,-99.99,wxupload 3.5,2013-03-21 19:06:00,
2013-03-21 15:12:00,24.6,-12.3,27.05,North,0,0.0,0.0,19,0.00,NA,NA,-99.99,wxupload 3.5,2013-03-21 19:12:00,
2013-03-21 15:19:00,24.1,-12.7,27.05,North,0,0.0,0.0,19,0.00,NA,NA,-99.99,wxupload 3.5,2013-03-21 19:19:00,
2013-03-21 15:25:00,23.7,-13.1,27.05,North,0,0.0,0.0,19,0.00,NA,NA,-99.99,wxupload 3.5,2013-03-21 19:25:00,
2013-03-21 15:30:00,23.5,-13.2,27.05,North,0,0.0,0.0,19,0.00,NA,NA,-99.99,wxupload 3.5,2013-03-21 19:30:00,
2013-03-21 15:37:00,24.1,-12.7,27.05,North,0,0.0,0.0,19,0.00,NA,NA,-99.99,wxupload 3.5,2013-03-21 19:37:00,
2013-03-21 15:42:00,23.7,-13.1,27.05,North,0,0.0,0.0,19,0.00,NA,NA,-99.99,wxupload 3.5,2013-03-21 19:42:00,
2013-03-21 15:48:00,23.0,-12.6,27.05,North,0,0.0,0.0,20,0.00,NA,NA,-99.99,wxupload 3.5,2013-03-21 19:48:00,
2013-03-21 15:54:00,22.8,-12.8,27.05,North,0,0.0,0.0,20,0.00,NA,NA,-99.99,wxupload 3.5,2013-03-21 19:54:00,
2013-03-21 16:02:00,23.5,-13.2,27.05,North,0,0.0,0.0,19,0.00,NA,NA,-99.99,wxupload 3.5,2013-03-21 20:02:00,
2013-03-21 16:08:00,24.3,-12.6,27.05,North,0,0.0,0.0,19,0.00,NA,NA,-99.99,wxupload 3.5,2013-03-21 20:08:00,
2013-03-21 16:14:00,24.8,-12.1,27.05,North,0,0.0,0.0,19,0.00,NA,NA,-99.99,wxupload 3.5,2013-03-21 20:14:00,
2013-03-21 16:20:00,24.6,-12.3,27.05,North,0,0.0,0.0,19,0.00,NA,NA,-99.99,wxupload 3.5,2013-03-21 20:20:00,
2013-03-21 16:28:00,24.4,-12.4,27.05,North,0,0.0,0.0,19,0.00,NA,NA,-99.99,wxupload 3.5,2013-03-21 20:28:00,
2013-03-21 16:34:00,24.4,-12.4,27.05,North,0,0.0,0.0,19,0.00,NA,NA,-99.99,wxupload 3.5,2013-03-21 20:34:00,
2013-03-21 16:40:00,24.6,-12.3,27.05,North,0,0.0,0.0,19,0.00,NA,NA,-99.99,wxupload 3.5,2013-03-21 20:40:00,
2013-03-21 16:46:00,24.4,-12.4,27.05,North,0,0.0,0.0,19,0.00,NA,NA,-99.99,wxupload 3.5,2013-03-21 20:46:00,
2013-03-21 16:53:00,24.4,-12.4,27.05,North,0,0.0,0.0,19,0.00,NA,NA,-99.99,wxupload 3.5,2013-03-21 20:53:00,
2013-03-21 16:59:00,24.3,-12.6,27.05,North,0,0.0,0.0,19,0.00,NA,NA,-99.99,wxupload 3.5,2013-03-21 20:59:00,
2013-03-21 17:05:00,23.9,-12.9,27.05,North,0,0.0,0.0,19,0.00,NA,NA,-99.99,wxupload 3.5,2013-03-21 21:05:00,
2013-03-21 17:10:00,23.7,-13.1,27.05,North,0,0.0,0.0,19,0.00,NA,NA,-99.99,wxupload 3.5,2013-03-21 21:10:00,
2013-03-21 17:16:00,23.7,-13.1,27.05,North,0,0.0,0.0,19,0.00,NA,NA,-99.99,wxupload 3.5,2013-03-21 21:16:00,
2013-03-21 17:22:00,23.9,-12.9,27.05,North,0,0.0,0.0,19,0.00,NA,NA,-99.99,wxupload 3.5,2013-03-21 21:22:00,
2013-03-21 17:28:00,23.9,-12.9,27.05,North,0,0.0,0.0,19,0.00,NA,NA,-99.99,wxupload 3.5,2013-03-21 21:28:00,
2013-03-21 17:34:00,23.7,-13.1,27.05,North,0,0.0,0.0,19,0.00,NA,NA,-99.99,wxupload 3.5,2013-03-21 21:34:00,
2013-03-21 17:41:00,23.7,-13.1,27.05,North,0,0.0,0.0,19,0.00,NA,NA,-99.99,wxupload 3.5,2013-03-21 21:41:00,
2013-03-21 17:47:00,23.9,-12.9,27.05,North,0,0.0,0.0,19,0.00,NA,NA,-99.99,wxupload 3.5,2013-03-21 21:47:00,
2013-03-21 17:52:00,23.9,-12.9,27.05,North,0,0.0,0.0,19,0.00,NA,NA,-99.99,wxupload 3.5,2013-03-21 21:52:00,
2013-03-21 17:58:00,23.5,-13.2,27.05,North,0,0.0,0.0,19,0.00,NA,NA,-99.99,wxupload 3.5,2013-03-21 21:58:00,
2013-03-21 18:04:00,23.4,-13.4,27.05,North,0,0.0,0.0,19,0.00,NA,NA,-99.99,wxupload 3.5,2013-03-21 22:04:00,
2013-03-21 18:10:00,23.2,-13.5,27.05,North,0,0.0,0.0,19,0.00,NA,NA,-99.99,wxupload 3.5,2013-03-21 22:10:00,
2013-03-21 18:16:00,22.8,-12.8,27.05,North,0,0.0,0.0,20,0.00,NA,NA,-99.99,wxupload 3.5,2013-03-21 22:16:00,
2013-03-21 18:23:00,22.6,-12.9,27.05,North,0,0.0,0.0,20,0.00,NA,NA,-99.99,wxupload 3.5,2013-03-21 22:23:00,
2013-03-21 18:29:00,22.6,-12.9,27.05,North,0,0.0,0.0,20,0.00,NA,NA,-99.99,wxupload 3.5,2013-03-21 22:29:00,
2013-03-21 18:34:00,22.5,-13.1,27.05,North,0,0.0,0.0,20,0.00,NA,NA,-99.99,wxupload 3.5,2013-03-21 22:34:00,
2013-03-21 18:40:00,22.3,-13.2,27.05,North,0,0.0,0.0,20,0.00,NA,NA,-99.99,wxupload 3.5,2013-03-21 22:40:00,
2013-03-21 18:46:00,22.3,-13.2,27.05,North,0,0.0,0.0,20,0.00,NA,NA,-99.99,wxupload 3.5,2013-03-21 22:46:00,
2013-03-21 18:52:00,22.1,-13.4,27.05,North,0,0.0,0.0,20,0.00,NA,NA,-99.99,wxupload 3.5,2013-03-21 22:52:00,
2013-03-21 18:58:00,21.9,-13.5,27.05,North,0,0.0,0.0,20,0.00,NA,NA,-99.99,wxupload 3.5,2013-03-21 22:58:00,
2013-03-21 19:05:00,21.7,-13.7,27.05,North,0,0.0,0.0,20,0.00,NA,NA,-99.99,wxupload 3.5,2013-03-21 23:05:00,
2013-03-21 19:11:00,21.6,-13.9,27.05,North,0,0.0,0.0,20,0.00,NA,NA,-99.99,wxupload 3.5,2013-03-21 23:11:00,
2013-03-21 19:17:00,21.4,-14.0,27.05,North,0,0.0,0.0,20,0.00,NA,NA,-99.99,wxupload 3.5,2013-03-21 23:17:00,
2013-03-21 19:22:00,21.2,-14.2,27.05,North,0,0.0,0.0,20,0.00,NA,NA,-99.99,wxupload 3.5,2013-03-21 23:22:00,
2013-03-21 19:28:00,21.0,-14.3,27.05,North,0,0.0,0.0,20,0.00,NA,NA,-99.99,wxupload 3.5,2013-03-21 23:28:00,
2013-03-21 19:34:00,20.8,-14.5,27.05,North,0,0.0,0.0,20,0.00,NA,NA,-99.99,wxupload 3.5,2013-03-21 23:34:00,
2013-03-21 19:40:00,20.7,-14.6,27.05,North,0,0.0,0.0,20,0.00,NA,NA,-99.99,wxupload 3.5,2013-03-21 23:40:00,
2013-03-21 19:48:00,20.3,-14.9,27.05,North,0,0.0,0.0,20,0.00,NA,NA,-99.99,wxupload 3.5,2013-03-21 23:48:00,
2013-03-21 19:54:00,20.1,-15.1,27.05,North,0,0.0,0.0,20,0.00,NA,NA,-99.99,wxupload 3.5,2013-03-21 23:54:00,
2013-03-21 20:00:00,20.1,-15.1,27.05,North,0,0.0,0.0,20,0.00,NA,NA,-99.99,wxupload 3.5,2013-03-22 00:00:00,
2013-03-21 20:09:00,19.8,-15.4,27.05,North,0,0.0,0.0,20,0.00,NA,NA,-99.99,wxupload 3.5,2013-03-22 00:09:00,
2013-03-21 20:15:00,19.6,-15.6,27.05,North,0,0.0,0.0,20,0.00,NA,NA,-99.99,wxupload 3.5,2013-03-22 00:15:00,
2013-03-21 20:20:00,19.6,-15.6,27.05,North,0,0.0,0.0,20,0.00,NA,NA,-99.99,wxupload 3.5,2013-03-22 00:20:00,
2013-03-21 20:26:00,19.6,-15.6,27.05,North,0,0.0,0.0,20,0.00,NA,NA,-99.99,wxupload 3.5,2013-03-22 00:26:00,
2013-03-21 20:32:00,19.6,-15.6,27.05,North,0,0.0,0.0,20,0.00,NA,NA,-99.99,wxupload 3.5,2013-03-22 00:32:00,
2013-03-21 20:38:00,19.4,-15.7,27.05,North,0,0.0,0.0,20,0.00,NA,NA,-99.99,wxupload 3.5,2013-03-22 00:38:00,
2013-03-21 20:44:00,19.4,-15.7,27.05,North,0,0.0,0.0,20,0.00,NA,NA,-99.99,wxupload 3.5,2013-03-22 00:44:00,
2013-03-21 20:52:00,19.2,-15.9,27.05,North,0,0.0,0.0,20,0.00,NA,NA,-99.99,wxupload 3.5,2013-03-22 00:52:00,
2013-03-21 20:58:00,19.2,-15.9,27.05,North,0,0.0,0.0,20,0.00,NA,NA,-99.99,wxupload 3.5,2013-03-22 00:58:00,
2013-03-21 21:04:00,19.2,-15.9,27.05,North,0,0.0,0.0,20,0.00,NA,NA,-99.99,wxupload 3.5,2013-03-22 01:04:00,
2013-03-21 21:10:00,19.2,-15.9,27.05,North,0,0.0,0.0,20,0.00,NA,NA,-99.99,wxupload 3.5,2013-03-22 01:10:00,
2013-03-21 21:16:00,19.0,-16.0,27.05,North,0,0.0,0.0,20,0.00,NA,NA,-99.99,wxupload 3.5,2013-03-22 01:16:00,
2013-03-21 21:23:00,18.9,-16.2,27.05,North,0,0.0,0.0,20,0.00,NA,NA,-99.99,wxupload 3.5,2013-03-22 01:23:00,
2013-03-21 21:29:00,19.0,-16.0,27.05,North,0,0.0,0.0,20,0.00,NA,NA,-99.99,wxupload 3.5,2013-03-22 01:29:00,
2013-03-21 21:35:00,19.0,-16.0,27.05,North,0,0.0,0.0,20,0.00,NA,NA,-99.99,wxupload 3.5,2013-03-22 01:35:00,
2013-03-21 21:40:00,19.0,-16.0,27.05,North,0,0.0,0.0,20,0.00,NA,NA,-99.99,wxupload 3.5,2013-03-22 01:40:00,
2013-03-21 21:46:00,19.0,-16.0,27.05,North,0,0.0,0.0,20,0.00,NA,NA,-99.99,wxupload 3.5,2013-03-22 01:46:00,
2013-03-21 21:52:00,18.9,-16.2,27.05,North,0,0.0,0.0,20,0.00,NA,NA,-99.99,wxupload 3.5,2013-03-22 01:52:00,
2013-03-21 21:58:00,18.7,-16.3,27.05,North,0,0.0,0.0,20,0.00,NA,NA,-99.99,wxupload 3.5,2013-03-22 01:58:00,
2013-03-21 22:04:00,18.7,-16.3,27.05,North,0,0.0,0.0,20,0.00,NA,NA,-99.99,wxupload 3.5,2013-03-22 02:04:00,
2013-03-21 22:11:00,18.7,-16.3,27.05,North,0,0.0,0.0,20,0.00,NA,NA,-99.99,wxupload 3.5,2013-03-22 02:11:00,
2013-03-21 22:17:00,18.7,-16.3,27.05,North,0,0.0,0.0,20,0.00,NA,NA,-99.99,wxupload 3.5,2013-03-22 02:17:00,
2013-03-21 22:23:00,18.7,-16.3,27.05,North,0,0.0,0.0,20,0.00,NA,NA,-99.99,wxupload 3.5,2013-03-22 02:23:00,
2013-03-21 22:28:00,18.7,-16.3,27.05,North,0,0.0,0.0,20,0.00,NA,NA,-99.99,wxupload 3.5,2013-03-22 02:28:00,
2013-03-21 22:34:00,18.7,-16.3,27.05,North,0,0.0,0.0,20,0.00,NA,NA,-99.99,wxupload 3.5,2013-03-22 02:34:00,
2013-03-21 22:40:00,18.5,-16.5,27.05,North,0,0.0,0.0,20,0.00,NA,NA,-99.99,wxupload 3.5,2013-03-22 02:40:00,
2013-03-21 22:49:00,18.7,-16.3,27.05,North,0,0.0,0.0,20,0.00,NA,NA,-99.99,wxupload 3.5,2013-03-22 02:49:00,
2013-03-21 22:56:00,18.7,-16.3,27.05,North,0,0.0,0.0,20,0.00,NA,NA,-99.99,wxupload 3.5,2013-03-22 02:56:00,
2013-03-21 23:02:00,18.7,-16.3,27.05,North,0,0.0,0.0,20,0.00,NA,NA,-99.99,wxupload 3.5,2013-03-22 03:02:00,
2013-03-21 23:09:00,18.7,-16.3,27.05,North,0,0.0,0.0,20,0.00,NA,NA,-99.99,wxupload 3.5,2013-03-22 03:09:00,
2013-03-21 23:15:00,18.7,-16.3,27.05,North,0,0.0,0.0,20,0.00,NA,NA,-99.99,wxupload 3.5,2013-03-22 03:15:00,
2013-03-21 23:21:00,18.7,-16.3,27.05,North,0,0.0,0.0,20,0.00,NA,NA,-99.99,wxupload 3.5,2013-03-22 03:21:00,
2013-03-21 23:27:00,18.7,-16.3,27.05,North,0,0.0,0.0,20,0.00,NA,NA,-99.99,wxupload 3.5,2013-03-22 03:27:00,
2013-03-21 23:33:00,18.7,-16.3,27.05,North,0,0.0,0.0,20,0.00,NA,NA,-99.99,wxupload 3.5,2013-03-22 03:33:00,
2013-03-21 23:38:00,18.7,-16.3,27.05,North,0,0.0,0.0,20,0.00,NA,NA,-99.99,wxupload 3.5,2013-03-22 03:38:00,
2013-03-21 23:44:00,18.9,-16.2,27.05,North,0,0.0,0.0,20,0.00,NA,NA,-99.99,wxupload 3.5,2013-03-22 03:44:00,
2013-03-21 23:50:00,19.0,-16.0,27.05,North,0,0.0,0.0,20,0.00,NA,NA,-99.99,wxupload 3.5,2013-03-22 03:50:00,
2013-03-21 23:57:00,19.0,-16.0,27.05,North,0,0.0,0.0,20,0.00,NA,NA,-99.99,wxupload 3.5,2013-03-22 03:57:00,